When you browse on this site, cookies collect data to enhance your experience and personalize the content and advertising you see.
Visit our Privacy Policy to learn more. By continuing to use the site, you agree to this use of cookies and data.
  • In United Kingdom
  • List of Countries
  • For 7 days
  • Water Temperature
  • Weather Map
  • Weather Widgets
  • user-avatar
    Login

    Hourly Weather Shapran

    Today, 26 May, Tuesday

    Time Temperature Precipitation Wind Pressure Humidity
    00:00 +11°C° 0.3 mm 3 mps 751 mmHg 93%
    01:00 +10°C° 0.3 mm 2 mps 751 mmHg 94%
    02:00 +10°C° 0.3 mm 2 mps 751 mmHg 94%
    03:00 +10°C° 0.3 mm 2 mps 751 mmHg 95%
    04:00 +10°C° 0.2 mm 3 mps 751 mmHg 95%
    05:00 +10°C° 0.2 mm 3 mps 751 mmHg 95%
    06:00 +10°C° 0.2 mm 3 mps 751 mmHg 95%
    07:00 +10°C° 0.3 mm 4 mps 751 mmHg 94%
    08:00 +10°C° 0.3 mm 4 mps 751 mmHg 94%
    09:00 +10°C° 0.3 mm 4 mps 751 mmHg 93%
    10:00 +11°C° 0.2 mm 4 mps 750 mmHg 93%
    11:00 +11°C° 0.2 mm 4 mps 750 mmHg 92%
    12:00 +11°C° 0.2 mm 4 mps 750 mmHg 91%
    13:00 +11°C° 0.1 mm 3 mps 750 mmHg 90%
    14:00 +12°C° 0.1 mm 3 mps 750 mmHg 89%
    15:00 +13°C° 0.1 mm 2 mps 750 mmHg 88%
    16:00 +13°C° 0.1 mm 2 mps 750 mmHg 89%
    17:00 +13°C° 0.1 mm 2 mps 750 mmHg 89%
    18:00 +13°C° 0.1 mm 2 mps 750 mmHg 90%
    19:00 +13°C° 0 mm 2 mps 750 mmHg 91%
    20:00 +12°C° 0 mm 1 mps 750 mmHg 93%
    21:00 +12°C° 0 mm 1 mps 750 mmHg 95%
    22:00 +11°C° 0 mm 1 mps 750 mmHg 95%
    23:00 +11°C° 0 mm 1 mps 750 mmHg 95%

    Tomorrow, 27 May, Wednesday

    Time Temperature Precipitation Wind Pressure Humidity
    00:00 +11°C° 0 mm 1 mps 750 mmHg 95%
    01:00 +10°C° 0 mm 1 mps 750 mmHg 95%
    02:00 +9°C° 0 mm 1 mps 750 mmHg 95%
    03:00 +9°C° 0 mm 1 mps 750 mmHg 95%
    04:00 +9°C° 0 mm 1 mps 750 mmHg 94%
    05:00 +10°C° 0 mm 1 mps 750 mmHg 93%
    06:00 +11°C° 0 mm 1 mps 750 mmHg 93%
    07:00 +12°C° 0 mm 1 mps 750 mmHg 87%
    08:00 +14°C° 0 mm 2 mps 751 mmHg 82%
    09:00 +15°C° 0 mm 2 mps 751 mmHg 77%
    10:00 +16°C° 0.1 mm 2 mps 751 mmHg 75%
    11:00 +17°C° 0.1 mm 2 mps 751 mmHg 72%
    12:00 +18°C° 0.1 mm 2 mps 750 mmHg 69%
    13:00 +18°C° 0.1 mm 2 mps 750 mmHg 70%
    14:00 +18°C° 0.1 mm 2 mps 750 mmHg 70%
    15:00 +18°C° 0.1 mm 2 mps 750 mmHg 70%
    16:00 +19°C° 0 mm 1 mps 750 mmHg 73%
    17:00 +18°C° 0 mm 1 mps 749 mmHg 77%
    18:00 +18°C° 0 mm 1 mps 749 mmHg 81%
    19:00 +16°C° 0.1 mm 1 mps 749 mmHg 82%
    20:00 +15°C° 0.1 mm 2 mps 749 mmHg 84%
    21:00 +15°C° 0.1 mm 2 mps 750 mmHg 86%
    22:00 +15°C° 0.3 mm 2 mps 749 mmHg 88%
    23:00 +14°C° 0.3 mm 2 mps 749 mmHg 90%

    Day after tomorrow, 28 May, Thursday

    Time Temperature Precipitation Wind Pressure Humidity
    00:00 +14°C° 0.3 mm 2 mps 749 mmHg 92%
    01:00 +14°C° 0.6 mm 2 mps 748 mmHg 93%
    02:00 +14°C° 0.6 mm 2 mps 748 mmHg 93%
    03:00 +14°C° 0.6 mm 2 mps 748 mmHg 94%
    04:00 +13°C° 0.4 mm 3 mps 748 mmHg 92%
    05:00 +13°C° 0.4 mm 3 mps 747 mmHg 91%
    06:00 +14°C° 0.4 mm 4 mps 747 mmHg 90%
    07:00 +15°C° 0 mm 5 mps 747 mmHg 85%
    08:00 +16°C° 0 mm 6 mps 747 mmHg 80%
    09:00 +18°C° 0 mm 7 mps 746 mmHg 75%
    10:00 +20°C° 0 mm 7 mps 746 mmHg 72%
    11:00 +21°C° 0 mm 7 mps 746 mmHg 69%
    12:00 +22°C° 0 mm 7 mps 745 mmHg 66%
    13:00 +23°C° 0 mm 7 mps 745 mmHg 64%
    14:00 +24°C° 0 mm 7 mps 744 mmHg 62%
    15:00 +26°C° 0 mm 7 mps 744 mmHg 61%
    16:00 +24°C° 0 mm 6 mps 743 mmHg 65%
    17:00 +25°C° 0 mm 5 mps 743 mmHg 69%
    18:00 +23°C° 0 mm 5 mps 743 mmHg 73%
    19:00 +22°C° 0 mm 5 mps 743 mmHg 76%
    20:00 +21°C° 0 mm 4 mps 743 mmHg 78%
    21:00 +20°C° 0 mm 4 mps 742 mmHg 81%
    22:00 +19°C° 0 mm 4 mps 742 mmHg 84%
    23:00 +19°C° 0 mm 4 mps 742 mmHg 86%

    29 May, Friday

    Time Temperature Precipitation Wind Pressure Humidity
    00:00 +18°C° 0 mm 4 mps 742 mmHg 89%
    01:00 +18°C° 0.7 mm 3 mps 742 mmHg 91%
    02:00 +18°C° 0.7 mm 3 mps 742 mmHg 93%
    03:00 +17°C° 0.7 mm 3 mps 742 mmHg 96%
    04:00 +17°C° 0.5 mm 3 mps 742 mmHg 95%
    05:00 +17°C° 0.5 mm 2 mps 743 mmHg 95%
    06:00 +17°C° 0.5 mm 2 mps 743 mmHg 95%
    07:00 +18°C° 0.1 mm 2 mps 743 mmHg 91%
    08:00 +19°C° 0.1 mm 2 mps 743 mmHg 87%
    09:00 +19°C° 0.1 mm 2 mps 742 mmHg 83%
    10:00 +20°C° 0.4 mm 2 mps 743 mmHg 82%
    11:00 +20°C° 0.4 mm 2 mps 743 mmHg 80%
    12:00 +20°C° 0.4 mm 2 mps 743 mmHg 79%
    13:00 +21°C° 0.3 mm 2 mps 743 mmHg 79%
    14:00 +21°C° 0.3 mm 2 mps 742 mmHg 78%
    15:00 +23°C° 0.3 mm 2 mps 742 mmHg 78%
    16:00 +21°C° 0.6 mm 2 mps 742 mmHg 81%
    17:00 +21°C° 0.6 mm 3 mps 741 mmHg 84%
    18:00 +21°C° 0.6 mm 3 mps 741 mmHg 87%
    19:00 +20°C° 0.2 mm 3 mps 741 mmHg 90%
    20:00 +19°C° 0.2 mm 3 mps 741 mmHg 92%
    21:00 +18°C° 0.2 mm 3 mps 741 mmHg 95%
    22:00 +18°C° 1 mm 3 mps 741 mmHg 95%
    23:00 +18°C° 1 mm 3 mps 740 mmHg 95%

    30 May, Saturday

    Time Temperature Precipitation Wind Pressure Humidity
    00:00 +17°C° 1 mm 3 mps 740 mmHg 95%
    01:00 +17°C° 1.6 mm 4 mps 740 mmHg 96%
    02:00 +18°C° 1.6 mm 4 mps 739 mmHg 96%
    03:00 +18°C° 1.6 mm 4 mps 739 mmHg 96%
    04:00 +18°C° 2.9 mm 4 mps 739 mmHg 96%
    05:00 +18°C° 2.9 mm 4 mps 738 mmHg 96%
    06:00 +18°C° 2.9 mm 4 mps 738 mmHg 96%
    07:00 +17°C° 3.9 mm 4 mps 738 mmHg 96%
    08:00 +17°C° 3.9 mm 3 mps 738 mmHg 97%
    09:00 +17°C° 3.9 mm 3 mps 737 mmHg 97%
    10:00 +19°C° 0.6 mm 4 mps 737 mmHg 92%
    11:00 +20°C° 0.6 mm 5 mps 737 mmHg 86%
    12:00 +21°C° 0.6 mm 6 mps 738 mmHg 81%
    13:00 +22°C° 0.2 mm 6 mps 737 mmHg 79%
    14:00 +22°C° 0.2 mm 6 mps 737 mmHg 77%
    15:00 +22°C° 0.2 mm 7 mps 737 mmHg 75%
    16:00 +21°C° 0.2 mm 6 mps 737 mmHg 78%
    17:00 +21°C° 0.2 mm 6 mps 737 mmHg 80%
    18:00 +20°C° 0.2 mm 6 mps 737 mmHg 83%
    19:00 +17°C° 0.1 mm 6 mps 738 mmHg 85%
    20:00 +16°C° 0.1 mm 6 mps 738 mmHg 88%
    21:00 +15°C° 0.1 mm 6 mps 738 mmHg 90%
    22:00 +14°C° 0 mm 6 mps 738 mmHg 89%
    23:00 +14°C° 0 mm 6 mps 738 mmHg 89%

    31 May, Sunday

    Time Temperature Precipitation Wind Pressure Humidity
    00:00 +13°C° 0 mm 6 mps 739 mmHg 88%
    01:00 +13°C° 0 mm 6 mps 739 mmHg 87%
    02:00 +13°C° 0 mm 6 mps 739 mmHg 87%
    03:00 +13°C° 0 mm 6 mps 739 mmHg 86%
    04:00 +13°C° 0 mm 6 mps 739 mmHg 86%
    05:00 +12°C° 0 mm 7 mps 739 mmHg 86%
    06:00 +12°C° 0 mm 7 mps 738 mmHg 86%
    07:00 +13°C° 0.1 mm 8 mps 739 mmHg 83%
    08:00 +15°C° 0.1 mm 9 mps 739 mmHg 80%
    09:00 +16°C° 0.1 mm 10 mps 739 mmHg 77%
    10:00 +17°C° 0.2 mm 10 mps 740 mmHg 75%
    11:00 +18°C° 0.2 mm 10 mps 740 mmHg 73%
    12:00 +18°C° 0.2 mm 10 mps 740 mmHg 70%
    13:00 +19°C° 0.4 mm 10 mps 740 mmHg 71%
    14:00 +19°C° 0.4 mm 9 mps 740 mmHg 72%
    15:00 +19°C° 0.4 mm 9 mps 741 mmHg 73%
    16:00 +20°C° 0.5 mm 8 mps 741 mmHg 75%
    17:00 +20°C° 0.5 mm 7 mps 741 mmHg 77%
    18:00 +19°C° 0.5 mm 6 mps 741 mmHg 79%
    19:00 +17°C° 0.4 mm 6 mps 741 mmHg 82%
    20:00 +16°C° 0.4 mm 5 mps 742 mmHg 85%
    21:00 +15°C° 0.4 mm 4 mps 742 mmHg 88%
    22:00 +14°C° 0 mm 5 mps 742 mmHg 89%
    23:00 +14°C° 0 mm 5 mps 742 mmHg 89%
    Show more